Wind_Speed
20 20 20 19 18 17 17 18 19 20 22 23 24 25 26 26 26 27 26 26 26 26 26 27 27 28 29 29 30 31 32 33 34 34 35 35 35 35 35 35 35 35 36 36 36 36 36 34 32 30 29 27 26 25 24 22 21 21 22 22 23 24 24 24 25 27 29 31 31
21 20 19 19 18 18 19 20 21 23 24 25 26 27 28 28 28 28 27 27 27 27 27 27 28 28 29 29 30 30 31 32 33 33 34 35 35 35 35 36 36 36 36 36 36 36 36 34 33 32 31 29 28 28 28 27 25 24 24 24 24 24 24 25 26 27 28 30 32
21 20 19 18 18 19 20 22 23 25 26 27 28 29 29 29 29 28 28 28 28 28 28 28 28 29 29 29 30 31 31 31 31 32 32 32 33 34 35 36 37 37 37 37 37 36 35 34 33 33 32 31 30 30 30 29 27 26 25 25 24 24 24 25 25 26 27 28 29
20 19 19 19 19 20 21 23 24 26 27 28 30 30 30 30 30 30 30 30 30 29 29 29 29 29 29 29 30 30 30 30 30 30 30 31 31 33 34 36 37 38 38 38 38 38 37 36 34 32 32 32 31 31 31 29 28 26 25 25 25 24 24 25 25 25 26 27 27
19 19 18 19 20 21 22 23 25 26 28 29 30 30 30 30 30 30 30 30 30 30 30 31 31 31 30 30 29 29 28 28 28 28 29 30 31 32 33 35 36 37 38 39 39 39 39 38 35 33 32 32 31 31 31 29 28 26 25 24 24 24 24 25 25 26 26 27 27
19 19 19 19 20 21 22 23 25 27 28 29 30 30 30 30 30 31 31 31 31 32 32 32 32 32 31 30 28 27 27 26 27 27 28 29 31 32 33 34 35 36 37 38 38 38 38 38 35 34 33 32 32 31 29 28 26 25 24 23 24 24 24 24 25 25 26 27 28
19 19 19 20 21 22 23 24 25 27 28 29 30 30 31 31 31 32 32 32 33 33 33 33 33 32 31 30 28 27 27 27 27 27 28 29 30 31 32 32 33 34 35 36 37 37 37 36 34 32 32 32 31 30 29 27 25 25 24 24 24 24 24 25 25 26 26 27 28
20 19 20 20 21 22 23 24 25 26 28 28 29 30 31 32 32 33 33 33 33 33 33 33 33 32 31 31 30 29 28 28 28 28 28 29 29 30 31 31 32 33 34 35 35 35 35 34 32 31 31 31 30 30 29 27 26 26 26 25 25 25 25 26 26 26 27 28 29
21 20 21 21 22 23 24 25 25 26 27 28 29 30 31 32 32 33 33 32 32 32 33 33 33 32 32 31 31 30 29 29 29 28 29 29 29 29 29 30 31 32 33 34 34 35 35 34 32 31 31 30 30 31 30 29 28 27 27 27 27 27 27 26 27 27 28 29 29
22 22 22 22 23 24 25 25 26 26 27 28 29 30 31 31 32 32 32 32 32 32 32 32 32 32 32 32 31 31 30 30 30 29 29 29 29 29 29 30 30 32 33 33 34 35 35 34 34 33 32 30 31 31 31 31 30 29 28 27 28 28 28 28 28 29 29 30 30
24 23 23 23 24 25 26 26 26 27 27 28 29 30 30 31 31 32 32 32 32 32 32 32 32 32 31 31 31 31 31 31 30 30 30 30 30 31 31 31 32 32 33 33 33 34 33 33 33 33 33 31 30 30 30 30 30 30 29 29 29 29 29 29 29 30 30 30 31
25 25 24 24 24 25 26 26 27 27 27 28 29 29 30 31 31 31 32 31 31 31 31 31 31 31 31 31 31 31 31 31 31 31 31 31 32 33 33 33 34 34 34 34 33 32 31 31 32 33 33 33 32 31 30 29 29 29 30 30 30 30 29 29 29 30 30 31 31
26 25 25 25 25 25 25 26 26 27 27 28 29 29 30 31 31 31 31 30 30 30 30 30 30 30 30 30 31 31 31 31 31 31 31 32 33 33 34 34 35 35 34 34 33 31 31 31 32 33 34 34 34 33 31 31 31 31 31 30 30 30 30 29 29 30 30 31 31
27 26 26 25 25 25 25 25 26 26 27 28 29 30 30 30 30 30 29 29 29 29 30 30 30 30 30 31 31 32 32 32 31 31 31 32 33 33 34 35 35 34 34 34 33 33 32 32 33 33 34 35 35 34 34 33 33 32 32 31 31 31 31 30 29 29 30 32 33
27 26 26 26 25 25 25 25 26 26 27 28 29 29 30 30 29 29 29 29 29 29 30 30 30 31 32 32 33 33 33 33 32 32 32 33 33 34 35 35 35 34 34 34 34 34 34 34 34 34 34 35 36 36 35 34 34 34 34 33 33 33 32 31 30 29 30 31 32
28 28 28 27 27 26 26 26 26 27 27 28 29 29 29 29 29 29 28 29 29 30 31 31 32 33 34 34 35 35 34 34 33 33 33 33 34 35 35 35 35 35 35 35 35 35 35 35 35 35 35 36 36 36 36 35 35 35 35 35 35 35 33 32 31 31 31 31 32
28 29 30 30 30 29 28 28 28 28 28 29 29 30 30 29 29 29 29 30 30 31 32 33 34 35 35 36 36 36 35 35 34 34 34 34 35 36 36 36 36 36 35 35 35 36 36 36 36 36 36 36 37 37 36 35 35 35 35 36 36 35 34 33 31 32 32 33 32
28 29 30 31 31 30 30 29 29 29 29 30 30 30 30 30 30 31 31 32 32 32 33 34 35 36 36 36 36 35 35 35 35 35 36 36 36 37 37 37 37 36 36 35 36 36 36 37 37 37 37 37 37 36 36 36 35 35 35 35 36 35 35 33 32 32 32 33 33
28 29 29 30 30 30 30 30 30 30 31 31 31 32 32 32 32 33 33 34 34 34 35 35 36 36 37 36 36 36 36 36 36 36 37 37 37 37 36 37 37 36 36 36 36 36 37 37 37 37 37 37 37 37 37 36 35 35 35 35 35 36 35 34 33 32 33 33 33
28 28 28 29 29 29 30 30 31 32 32 33 33 33 34 34 34 34 35 35 35 35 35 35 36 37 37 36 37 37 36 36 36 37 37 37 37 37 37 37 37 36 36 36 36 36 37 37 37 37 37 37 37 37 37 37 36 36 35 35 35 35 35 34 33 34 34 35 34
28 28 29 29 30 31 31 32 33 33 34 34 35 35 35 35 35 35 35 36 36 35 35 35 36 37 37 37 37 37 36 36 36 36 36 36 36 37 37 37 37 37 36 36 36 37 38 38 38 38 38 38 38 38 38 37 37 36 36 35 35 35 35 35 34 35 35 36 35
29 30 31 31 32 32 33 34 34 35 35 35 35 35 35 35 35 35 35 35 35 35 35 36 36 36 36 36 36 37 37 36 36 36 36 36 36 37 37 36 36 36 37 38 38 38 39 39 39 39 38 38 39 39 38 38 37 36 36 36 36 36 36 36 36 36 36 36 36
31 32 33 33 34 34 34 35 35 35 36 36 36 35 35 35 35 35 35 35 34 35 35 35 36 36 36 36 36 37 37 37 38 38 38 37 37 38 38 37 37 37 37 37 38 38 38 38 38 38 37 37 37 38 38 38 37 36 36 36 36 36 36 37 36 35 36 36 36
33 34 34 34 35 35 35 35 36 36 36 36 35 35 35 35 35 35 35 34 34 35 35 35 35 35 36 36 36 37 37 38 38 39 39 39 38 38 38 37 37 37 37 38 37 37 36 36 36 36 35 35 35 35 35 36 36 36 36 36 36 35 35 36 35 34 34 34 35
35 35 35 35 35 35 35 35 35 35 35 35 35 35 35 35 35 35 35 35 35 35 35 35 36 36 36 36 37 37 37 37 38 38 39 40 40 39 38 36 36 36 36 37 38 38 38 37 36 35 34 35 35 35 34 34 35 35 35 35 34 32 32 33 33 32 32 32 33
35 35 35 35 35 35 35 35 35 35 35 35 35 35 35 35 35 35 35 35 36 36 35 35 36 37 36 36 37 37 37 37 37 37 37 37 38 38 38 37 36 36 36 36 37 38 39 39 39 38 37 36 36 36 36 35 35 35 35 36 34 32 31 31 30 30 30 30 31
35 34 34 34 34 34 34 34 34 34 34 35 35 35 35 35 35 35 36 36 36 37 37 36 37 37 37 37 37 36 36 36 36 36 36 36 37 37 37 37 36 36 37 38 39 39 40 41 41 41 40 39 37 36 35 34 35 35 35 34 34 34 33 31 30 29 29 29 28
34 33 33 33 33 33 33 33 33 34 34 34 34 35 35 35 35 36 36 37 37 37 36 36 37 35 34 34 35 35 36 36 35 34 34 35 36 37 38 38 37 37 38 39 40 41 41 42 43 43 43 41 40 39 38 36 36 36 35 33 34 34 33 31 30 29 29 28 27
32 32 32 32 32 32 33 33 33 33 34 34 34 34 35 35 35 36 37 37 37 36 36 36 36 34 33 33 34 35 36 36 36 35 35 35 36 38 39 39 40 40 41 42 42 43 43 44 44 44 44 43 41 39 38 37 36 35 35 34 33 33 32 31 29 29 29 29 28
31 31 31 32 32 33 33 33 33 34 34 34 34 34 35 35 36 37 37 38 38 37 37 36 35 34 34 36 36 36 36 36 37 36 36 36 37 39 41 41 40 41 41 42 43 43 44 44 44 45 45 44 43 40 38 37 37 36 34 31 32 32 32 31 30 30 30 30 29
31 31 32 32 33 33 33 34 34 34 34 34 35 35 36 36 37 37 37 38 37 37 37 36 36 36 36 37 37 36 36 37 37 37 37 37 37 39 41 41 41 41 42 43 43 43 44 44 45 45 45 46 44 42 40 39 38 35 32 31 32 33 33 32 31 31 32 32 31
31 32 32 33 33 34 34 34 35 35 35 35 36 36 37 37 38 38 38 38 37 37 37 36 37 37 37 38 37 38 38 37 38 38 38 38 38 39 41 41 42 42 43 43 44 44 45 45 46 46 47 47 46 44 42 40 38 35 32 33 35 36 35 33 33 33 34 34 34
32 32 33 33 34 34 35 35 35 35 36 36 37 37 37 38 38 38 38 37 37 36 36 36 37 37 37 38 38 39 39 39 39 39 39 39 39 39 40 41 41 42 42 42 43 44 45 46 47 47 48 48 47 45 43 41 37 33 32 33 36 37 38 36 35 34 35 36 36
32 33 33 34 34 35 35 36 36 36 36 36 37 37 37 37 37 38 38 37 36 36 36 36 36 37 38 37 38 38 39 39 39 38 38 38 38 39 40 40 40 40 40 41 42 43 44 46 47 47 48 49 48 46 44 42 37 33 32 33 35 36 37 36 36 36 36 36 35
33 33 33 34 35 35 36 36 36 37 37 37 37 38 38 37 37 37 37 37 37 37 37 37 36 36 37 37 36 37 37 37 38 39 39 38 38 39 39 40 40 41 41 42 43 44 45 46 47 49 51 51 50 47 43 39 34 33 33 33 33 34 34 34 34 34 35 35 34
32 33 34 34 35 36 36 36 37 37 37 37 37 38 38 38 38 37 37 37 37 37 37 37 36 35 36 36 36 36 36 37 38 38 39 38 38 39 39 40 41 42 42 43 44 45 46 47 49 51 52 51 46 39 33 32 33 34 34 33 33 33 32 32 32 32 32 33 33
33 33 33 34 35 36 36 36 36 36 37 37 37 38 38 38 38 38 37 36 36 36 36 36 35 35 36 37 37 37 38 38 39 39 39 39 39 39 39 40 41 42 43 44 44 45 46 48 49 49 45 37 29 26 27 31 32 32 33 33 33 33 32 32 32 31 31 31 32
33 33 33 34 35 36 36 36 36 36 37 37 38 38 38 38 37 37 37 36 35 36 36 36 36 36 36 37 38 38 39 39 39 38 38 39 39 39 39 40 41 42 43 43 44 44 46 46 42 35 28 24 25 28 29 29 29 29 30 31 31 31 31 31 31 30 31 31 32
33 33 33 34 35 36 36 36 36 36 37 37 38 38 38 37 37 37 36 36 36 36 37 37 37 37 37 38 38 38 39 39 39 39 39 39 40 40 40 40 40 41 42 43 44 44 42 37 29 25 26 29 30 30 29 28 28 28 28 28 29 29 29 29 29 29 30 31 32
33 33 33 34 34 35 36 36 36 37 37 37 37 38 38 38 37 37 37 36 36 36 37 37 37 38 37 37 37 38 38 39 39 39 39 39 40 40 40 40 40 41 42 43 43 40 33 27 27 30 33 33 31 30 29 29 28 27 27 27 28 27 27 28 28 29 29 30 31
33 33 33 34 34 34 35 36 37 37 37 37 37 37 38 38 37 37 37 36 37 37 36 36 38 38 38 38 37 37 37 38 39 39 39 39 39 39 38 38 38 39 41 41 39 32 27 30 33 35 35 33 31 30 29 29 28 27 26 27 27 27 27 27 28 28 28 29 29
Wind_Direction
317 317 317 316 317 318 319 320 320 320 319 317 315 312 310 307 304 302 301 300 299 299 299 299 299 300 301 303 304 305 306 307 308 309 310 311 311 311 311 310 309 308 306 305 303 302 300 299 298 297 296 296 296 295 295 295 295 295 293 292 290 288 285 282 279 276 272 266 257
317 317 317 317 317 319 321 322 322 321 320 318 315 312 310 307 304 302 301 299 298 297 297 297 297 298 299 300 302 303 304 305 306 307 308 309 309 310 310 310 309 308 306 305 303 301 299 297 295 293 292 291 291 291 291 291 291 291 290 289 288 288 286 283 280 278 275 271 264
315 315 316 317 318 320 322 323 322 320 318 316 313 311 309 306 305 303 301 300 299 298 296 296 296 296 297 298 299 300 301 302 304 305 306 307 308 309 309 309 308 307 306 305 303 301 298 296 293 291 289 288 287 286 286 286 287 287 286 286 286 286 285 283 281 279 277 273 267
313 313 315 316 318 320 321 321 320 318 315 313 310 308 306 305 304 303 302 301 300 298 297 296 296 296 296 296 297 298 299 300 302 303 305 306 307 307 308 308 308 307 306 305 303 301 299 296 292 289 287 285 284 283 282 282 282 282 281 283 283 283 282 281 281 279 276 273 268
309 310 311 313 315 316 317 317 317 315 312 310 308 306 305 304 303 302 302 301 300 299 298 298 297 296 296 296 296 297 298 299 301 302 304 305 306 306 307 307 306 306 305 305 303 302 300 297 292 288 285 283 282 281 280 279 278 277 277 278 279 279 280 280 279 277 275 272 269
304 305 307 308 310 312 313 313 313 311 309 308 306 304 303 303 302 302 301 301 300 301 300 300 299 298 297 296 296 296 297 298 300 302 303 304 305 305 306 306 305 305 305 304 303 302 300 297 292 288 285 282 280 278 277 276 274 274 273 274 275 277 278 278 277 276 274 272 270
300 301 302 303 305 307 309 309 309 308 306 305 304 303 302 302 302 301 301 301 301 301 301 301 300 299 298 297 296 296 297 299 300 302 303 303 304 304 305 305 304 304 304 303 303 302 301 298 292 288 285 283 280 277 275 273 271 271 271 271 271 274 276 277 277 276 274 272 270
295 296 297 299 301 303 304 305 305 305 304 303 302 301 301 301 301 301 301 301 301 301 301 301 300 299 298 297 296 296 297 299 300 301 302 303 303 303 304 304 304 303 303 303 303 302 301 299 295 290 287 284 280 277 275 272 269 268 268 268 270 273 275 276 276 275 273 271 270
292 293 294 296 297 299 301 302 302 302 301 300 300 300 300 300 300 300 300 299 300 300 300 300 300 300 299 297 297 297 298 299 300 301 302 302 303 302 302 303 302 302 302 301 301 301 300 299 297 294 291 287 283 279 275 272 269 267 267 268 270 272 274 274 275 273 272 270 268
291 291 292 293 295 297 299 300 300 299 299 298 298 298 298 298 298 298 298 298 298 299 299 299 300 300 299 298 297 297 298 298 299 300 301 301 301 301 301 301 301 300 300 300 299 299 298 298 297 295 293 290 286 281 276 272 270 268 267 267 270 272 273 274 274 273 271 269 268
290 290 290 291 292 294 296 297 298 297 297 297 297 297 296 296 296 296 296 297 297 297 297 299 300 300 300 299 298 297 297 297 297 298 298 298 298 298 298 298 298 298 298 298 297 297 296 295 294 293 293 291 288 284 279 274 271 269 268 267 269 271 272 273 274 273 271 269 267
290 289 288 288 290 291 293 294 295 296 296 296 296 296 295 295 295 295 295 295 296 296 297 298 299 300 300 299 298 297 296 295 295 295 295 295 295 295 296 296 296 296 296 295 295 295 294 292 291 291 291 290 288 285 281 277 273 270 269 268 268 269 270 271 272 272 271 268 266
291 289 288 287 288 289 290 292 293 294 294 294 295 295 294 294 294 295 295 295 295 296 297 298 299 299 300 299 298 297 295 294 293 293 292 292 292 293 293 293 294 294 293 293 293 292 291 290 289 289 289 288 287 285 282 278 275 272 270 268 267 267 268 270 271 271 270 268 265
294 292 290 289 289 289 290 291 292 293 293 293 294 294 294 293 293 293 294 294 295 296 297 298 298 298 298 298 297 296 294 293 292 291 290 290 290 290 290 290 290 290 290 290 290 290 289 288 288 287 287 286 286 284 282 279 276 273 271 269 268 268 268 269 269 269 269 267 264
299 297 296 294 293 292 292 293 293 293 293 293 293 293 293 292 293 293 293 294 295 296 297 297 297 297 296 295 295 293 292 291 290 289 288 288 288 287 287 287 287 287 287 287 288 287 287 287 287 286 285 285 284 283 281 279 276 274 272 270 269 268 268 269 268 267 265 263 262
305 304 302 300 298 297 296 296 295 294 294 293 293 293 293 292 292 293 293 293 294 295 295 295 295 294 294 293 291 290 289 288 288 287 287 286 286 285 285 284 284 283 284 284 285 285 285 285 285 284 284 283 282 282 280 278 276 273 271 270 269 267 267 266 266 265 262 260 259
305 303 302 301 300 299 298 297 296 295 295 294 294 294 293 293 292 292 292 293 293 293 293 293 292 292 291 290 288 287 286 286 285 285 285 284 284 284 283 282 281 281 281 281 282 282 283 283 283 282 282 281 280 280 279 277 275 272 270 269 267 266 265 263 262 262 260 257 253
300 298 297 296 296 297 297 297 297 296 296 296 295 294 293 292 292 291 291 291 291 291 291 291 290 289 288 287 286 285 284 284 284 283 283 283 282 281 281 280 279 279 279 279 280 280 281 281 281 281 280 279 278 277 277 276 274 272 270 268 266 264 263 262 260 259 256 253 248
297 296 295 294 295 296 297 298 298 298 297 296 295 294 293 292 291 290 290 289 289 289 289 288 288 287 286 285 284 283 283 282 282 282 282 281 280 279 279 278 278 278 277 278 278 279 280 280 280 279 278 277 276 275 275 274 273 272 269 266 264 263 262 260 258 256 253 248 243
300 299 299 299 299 300 300 300 299 299 298 297 295 293 292 291 290 289 289 288 288 288 287 286 286 285 284 284 283 282 282 281 281 281 280 280 279 278 277 277 277 277 277 277 278 278 279 279 279 278 277 276 275 274 274 273 272 271 269 266 263 261 260 257 255 253 250 245 239
307 306 306 305 305 304 303 302 301 300 298 297 295 293 292 291 290 289 288 288 288 287 286 285 285 284 284 283 282 282 281 281 280 280 279 278 277 276 276 276 276 277 277 276 277 277 278 278 277 277 276 275 274 273 273 273 272 271 269 267 264 261 258 255 252 249 245 240 235
312 311 310 309 307 306 304 303 302 300 299 297 296 294 293 292 291 290 289 289 288 287 286 285 284 283 283 282 282 281 281 281 280 279 278 277 276 276 276 275 275 275 275 275 275 276 276 276 275 275 274 273 272 271 270 270 270 270 269 268 265 261 256 251 247 243 239 236 232
313 312 310 309 308 306 305 304 303 301 300 298 297 296 294 293 292 292 291 290 289 287 286 285 284 283 283 282 281 281 281 280 279 278 277 276 275 275 275 275 274 274 273 273 274 274 274 274 275 274 273 272 270 268 267 267 267 267 268 268 265 259 252 245 239 235 233 231 228
312 311 310 308 307 306 305 304 303 301 300 299 298 297 296 295 294 293 292 291 290 288 287 286 285 284 283 283 282 281 280 279 278 277 276 275 274 274 274 274 273 273 272 272 272 272 272 272 273 274 273 272 270 268 265 264 263 264 265 265 262 256 247 239 232 228 225 224 222
311 310 309 308 307 306 305 304 303 301 300 299 298 297 297 296 295 294 293 292 291 289 288 287 286 285 285 284 282 281 280 278 277 276 276 275 275 274 273 272 272 272 271 271 271 270 270 270 270 270 271 272 271 270 268 265 263 262 262 261 259 250 239 230 224 221 219 218 216
310 309 308 308 307 306 305 304 303 302 301 300 299 298 297 296 295 294 293 292 291 290 290 289 288 286 285 284 283 281 279 277 276 275 274 274 274 273 273 272 271 271 271 270 270 270 270 270 269 269 268 269 269 269 268 266 264 262 260 258 254 244 231 221 214 211 212 213 209
310 309 309 308 308 307 306 304 303 302 301 300 299 298 297 296 295 294 293 292 291 291 290 289 288 286 285 284 282 280 278 276 274 274 273 272 273 272 272 271 271 270 270 270 270 270 271 271 270 269 269 268 268 267 266 265 264 262 259 255 246 236 225 214 205 201 200 200 198
310 310 310 310 309 308 307 306 305 304 303 301 300 299 298 297 296 295 293 292 292 291 290 289 287 286 284 282 280 278 277 276 275 274 273 272 272 272 272 272 271 270 270 270 270 270 270 270 270 270 269 268 269 269 268 267 265 261 257 250 240 230 219 208 199 193 190 188 186
311 312 312 312 311 310 308 307 306 305 304 303 301 300 299 298 296 294 293 292 291 290 289 288 287 285 283 281 279 278 278 277 276 275 274 273 273 272 272 272 272 271 271 271 271 270 270 270 270 269 268 267 266 266 266 266 264 260 253 243 232 221 212 204 193 185 181 179 176
313 314 314 313 312 311 309 308 307 306 305 304 302 301 299 297 296 294 293 292 290 289 288 287 286 284 282 281 280 279 278 278 277 276 275 274 273 273 273 272 271 271 271 271 270 270 270 269 269 268 267 265 263 262 262 263 262 258 248 231 217 208 202 195 189 182 177 175 170
315 316 315 314 313 311 310 308 307 306 305 303 302 300 298 296 295 293 292 291 290 289 288 287 285 284 282 281 280 279 278 278 277 276 275 274 273 273 273 272 271 271 271 271 270 270 269 269 268 267 266 264 262 260 260 260 259 253 238 218 205 198 193 188 183 179 175 172 167
317 317 316 315 313 311 309 308 307 306 304 302 300 299 297 295 294 293 292 291 290 289 289 287 286 284 283 282 281 280 279 278 277 276 275 274 273 273 273 273 272 271 271 270 270 269 269 268 267 266 265 264 262 260 259 258 256 246 227 207 197 194 191 185 182 178 174 171 167
318 317 316 314 312 310 308 307 306 304 303 301 299 297 296 295 294 293 292 291 290 289 288 286 285 284 283 282 281 280 279 278 277 276 275 274 273 272 272 272 272 271 270 270 269 268 268 267 267 266 265 264 262 261 259 257 250 234 214 199 192 190 189 185 179 175 172 170 167
318 317 315 313 311 309 307 306 305 303 302 300 298 297 296 295 294 293 292 291 290 288 287 285 283 282 281 281 280 279 278 278 277 276 275 274 273 272 271 271 271 270 270 269 269 268 268 267 267 266 266 265 264 262 260 254 240 219 199 191 187 185 183 180 176 173 171 168 166
317 316 314 311 309 307 306 305 304 302 301 299 298 297 296 295 293 292 291 290 289 288 286 284 282 281 281 279 278 277 277 276 276 275 275 273 272 271 270 270 270 269 269 269 268 268 268 268 268 268 268 268 267 264 257 243 220 199 187 181 178 176 175 172 170 168 167 165 162
315 314 312 310 308 306 305 304 303 302 300 299 298 297 296 295 293 292 291 291 290 288 286 284 283 282 280 279 278 277 276 276 275 275 274 273 272 271 270 270 270 270 269 269 269 268 268 269 269 270 270 269 264 254 237 214 192 181 175 171 168 166 165 164 163 162 161 160 158
313 312 310 308 306 305 304 303 302 301 300 299 298 297 296 295 294 293 292 292 290 289 287 285 284 282 280 280 279 277 276 275 275 274 273 272 271 270 269 269 270 270 270 270 269 269 270 271 272 271 266 256 239 215 191 177 170 166 162 159 157 157 157 157 157 157 157 156 154
311 310 308 307 305 304 304 303 302 301 300 299 298 297 297 296 295 294 293 292 290 289 287 286 284 282 280 279 279 277 276 274 273 272 271 270 270 269 268 268 269 270 271 271 271 272 273 273 270 260 240 207 180 166 160 157 154 152 149 147 146 147 148 150 151 152 153 153 152
310 309 308 306 305 304 303 303 302 301 300 300 299 298 297 296 295 294 293 292 290 288 287 285 283 281 280 279 279 277 276 274 273 271 270 269 269 268 267 267 268 269 270 270 272 274 273 266 248 219 190 168 157 152 149 145 142 140 138 136 134 135 138 142 145 146 148 149 150
310 309 308 306 305 304 303 303 302 301 300 300 299 298 297 296 295 294 293 291 289 288 286 284 283 281 280 279 278 277 275 275 273 271 270 269 269 268 267 266 267 268 270 271 273 270 258 232 200 180 167 157 150 146 142 139 135 132 129 128 127 128 130 134 137 139 141 143 145
310 309 308 307 305 304 303 303 302 301 300 299 298 298 297 296 295 293 292 291 290 288 286 284 283 282 280 279 277 276 275 274 274 273 271 270 269 268 267 266 266 268 271 272 269 254 222 191 176 167 159 151 146 142 139 135 132 128 126 126 126 127 127 128 131 132 134 136 139
Height
782 781 781 780 779 779 779 778 778 777 776 776 775 774 773 772 771 770 769 768 767 765 764 763 762 761 760 759 759 758 757 756 754 754 753 752 751 750 749 748 748 747 746 745 745 744 744 743 743 742 742 741 741 741 741 741 742 742 743 743 742 742 741 740 740 740 740 739 739
781 780 780 779 779 778 778 777 776 776 775 775 774 773 772 771 770 769 768 767 765 764 763 762 761 760 759 758 757 757 755 754 754 753 752 751 750 749 748 747 746 746 745 744 744 743 742 742 741 740 740 739 739 739 739 739 740 740 740 740 740 740 740 739 738 738 737 737 737
780 779 779 778 778 777 776 776 775 775 774 774 773 772 771 770 769 767 766 765 764 763 762 761 759 759 758 757 756 755 754 753 752 751 750 749 749 748 747 746 745 744 743 743 742 741 740 740 739 739 738 737 737 736 736 737 738 738 738 738 738 738 738 737 736 736 736 735 734
779 779 778 777 777 776 775 775 774 774 773 772 772 771 769 769 767 766 765 764 763 761 760 759 758 757 756 755 754 754 753 752 751 750 749 748 747 746 746 745 744 743 742 741 740 739 739 738 737 737 736 735 734 734 734 734 735 735 735 736 736 736 736 735 735 734 734 733 732
778 777 777 776 775 775 774 774 773 772 772 771 770 769 768 767 766 764 763 762 761 760 759 758 757 755 754 754 753 752 751 750 749 748 747 746 745 745 744 744 743 742 740 739 738 737 736 736 735 734 733 733 732 731 731 732 732 733 733 733 734 734 734 734 733 733 732 731 730
776 775 775 774 774 773 773 772 772 771 770 769 769 767 766 765 764 763 762 760 759 758 757 756 755 754 753 752 751 750 749 748 747 747 746 744 744 743 742 742 741 740 739 738 736 735 734 734 733 731 730 730 729 729 728 729 729 729 730 730 730 731 732 731 731 731 730 729 728
774 774 773 773 772 772 771 770 770 769 769 768 767 766 764 764 763 761 760 759 758 756 755 754 753 752 751 750 749 748 747 746 745 744 744 743 742 741 740 739 739 738 737 736 735 734 733 732 730 729 728 727 727 726 726 726 726 727 727 727 727 728 729 729 729 729 728 727 726
773 772 771 771 770 770 769 769 768 767 767 766 765 764 763 762 761 759 758 757 756 755 754 753 751 750 749 748 747 746 744 744 743 742 742 741 740 739 739 738 737 736 735 734 734 732 731 730 729 727 726 725 724 724 724 724 724 724 724 724 724 725 726 726 726 726 725 724 724
771 770 769 769 768 768 767 767 766 765 764 764 763 762 761 760 759 758 757 755 754 753 752 751 750 749 748 746 745 744 743 742 741 740 739 739 738 737 737 736 735 734 733 733 732 731 729 729 727 725 724 723 722 721 721 722 721 721 721 721 721 721 722 723 723 724 723 722 721
769 768 767 767 766 766 765 764 764 763 762 761 760 760 759 758 757 756 755 754 753 751 750 749 748 747 746 745 744 742 741 740 739 738 737 737 736 735 734 734 733 732 731 730 730 729 728 726 725 723 722 721 720 719 719 719 719 719 718 718 718 719 719 719 720 720 720 720 719
767 766 765 765 764 764 763 762 762 761 760 759 758 758 757 756 755 754 753 752 751 749 749 748 747 745 744 743 742 741 740 739 738 737 735 734 734 733 732 732 731 730 729 728 728 727 726 724 723 721 720 719 718 717 716 716 716 716 715 715 715 716 715 716 717 717 717 717 716
765 764 764 763 762 761 761 760 759 759 758 757 756 755 754 754 753 752 751 750 749 748 747 746 745 744 743 742 741 740 739 738 736 735 734 733 732 731 730 729 729 728 727 726 726 725 724 722 721 719 718 717 716 715 714 714 713 713 713 712 713 713 712 712 713 714 714 714 713
764 763 762 761 760 759 759 758 757 756 756 755 754 753 752 751 751 750 749 748 747 746 745 744 743 742 741 740 739 738 737 736 735 734 733 731 730 729 728 727 726 725 724 723 723 723 722 720 719 718 716 714 714 713 712 711 711 710 709 709 709 709 709 709 710 710 711 711 710
762 761 760 759 758 757 756 755 755 754 754 753 752 751 750 749 749 748 747 746 745 744 743 742 741 740 739 739 738 737 736 735 734 732 731 730 729 728 727 725 724 723 722 721 720 720 719 718 717 716 714 713 711 710 709 709 708 707 707 706 706 706 706 706 706 707 708 708 707
760 759 759 758 756 755 754 753 753 752 751 751 750 749 748 747 746 745 745 744 743 742 741 740 739 738 738 737 736 735 734 733 732 730 729 728 727 726 725 724 723 721 720 719 718 717 716 715 714 713 712 710 709 708 707 706 705 704 704 703 703 703 703 703 703 704 704 704 704
759 758 758 757 755 754 753 751 751 750 749 749 748 747 746 745 744 743 742 741 740 739 739 738 737 736 735 734 734 733 732 731 730 729 727 726 725 724 723 722 720 719 719 717 716 715 714 713 712 711 709 708 707 705 704 704 703 702 701 700 700 699 699 699 700 701 701 702 701
757 757 757 756 754 753 751 750 749 748 747 746 745 744 744 743 741 741 740 739 738 737 736 735 735 734 733 732 731 731 730 728 727 726 725 724 722 721 720 719 718 717 716 715 714 713 711 710 709 709 707 706 704 703 702 701 700 699 698 697 697 696 696 696 697 698 698 699 699
755 755 754 754 752 751 749 748 747 746 745 744 743 742 741 740 739 738 737 736 735 734 734 732 732 731 730 729 728 728 727 726 724 723 722 721 720 719 717 716 715 714 714 713 711 710 709 708 707 706 705 704 702 701 699 698 697 696 694 694 693 693 693 693 693 694 695 695 695
753 752 752 751 749 748 747 746 744 744 742 741 740 739 738 737 736 735 734 733 733 732 731 729 729 728 727 726 725 724 724 723 721 720 719 718 717 716 714 713 712 711 711 710 709 707 706 705 704 703 702 701 699 698 697 696 694 693 692 691 690 690 689 689 690 691 692 692 692
752 750 749 748 747 746 745 744 742 741 740 739 738 737 735 734 733 732 731 730 729 729 728 726 725 724 724 723 722 721 720 719 719 717 716 715 714 713 711 710 709 709 708 707 705 704 703 702 701 700 699 698 697 695 694 693 691 690 689 688 687 687 686 686 687 687 688 689 689
750 749 748 747 745 744 743 742 740 739 738 736 735 734 732 731 730 729 728 727 726 725 724 723 722 721 720 719 719 718 717 716 715 714 713 712 710 709 708 708 707 705 704 703 702 701 700 699 698 697 696 694 694 692 691 690 689 687 686 685 684 683 683 683 683 684 684 685 685
749 748 746 745 744 742 741 739 738 737 735 734 732 731 729 728 727 726 725 724 723 722 721 720 719 718 717 716 715 714 713 712 711 710 709 708 707 706 705 704 703 702 701 700 699 698 696 695 694 693 692 691 690 689 688 687 685 684 683 682 681 680 679 679 679 680 680 681 682
747 746 744 743 742 740 739 737 735 734 733 731 729 728 727 725 724 723 722 721 720 719 717 716 715 714 714 713 712 711 709 709 707 706 705 704 703 702 701 701 700 699 697 696 695 694 693 691 690 689 689 688 686 685 684 683 682 681 679 679 678 677 676 676 675 676 677 678 678
746 744 743 741 739 738 736 735 733 731 730 729 727 725 724 723 721 720 719 718 716 715 714 713 712 711 710 709 708 707 706 705 704 702 701 700 699 698 698 697 696 694 693 692 691 690 689 688 687 686 685 684 683 681 680 679 678 677 676 675 674 674 673 672 672 672 673 674 675
744 742 741 739 738 736 734 732 731 729 728 726 724 723 721 720 719 717 716 714 713 712 711 710 709 708 707 706 705 704 703 701 700 698 697 696 695 694 694 693 692 690 689 688 687 686 685 685 684 683 682 681 680 678 677 675 674 674 673 672 672 671 670 669 669 669 670 671 672
742 740 739 737 735 734 732 730 729 727 725 724 722 720 719 717 716 714 713 711 710 709 708 706 705 704 704 702 701 700 699 697 696 695 693 692 691 690 689 689 688 686 685 684 682 681 681 681 680 680 679 678 677 675 674 672 671 670 669 669 669 668 667 666 666 666 668 669 670
740 739 737 735 733 732 730 728 726 724 723 721 720 718 717 715 714 712 710 709 707 706 705 704 702 701 700 699 697 696 694 693 692 691 690 688 687 686 684 684 683 682 680 679 678 678 677 677 676 676 676 675 674 672 670 669 668 667 666 666 665 665 664 664 663 664 665 667 668
739 737 735 733 731 729 728 726 724 723 721 719 718 716 714 713 711 709 707 706 704 703 702 700 699 698 697 695 693 692 690 689 688 687 686 684 683 682 681 679 678 677 676 675 674 674 673 672 672 672 672 672 671 670 668 666 665 664 663 662 661 661 661 661 661 661 663 665 666
737 735 733 731 729 728 726 724 722 720 719 717 715 714 712 710 709 707 705 703 702 700 699 698 696 695 694 692 689 688 687 686 684 684 682 681 679 678 676 675 674 673 671 671 670 669 669 668 667 667 667 667 667 666 665 663 662 660 659 658 658 658 658 659 659 659 661 662 664
735 733 731 729 728 726 724 722 720 719 717 715 714 712 710 708 706 704 702 701 699 697 696 695 693 692 690 688 686 685 684 682 681 680 679 677 675 674 672 671 669 668 667 666 665 665 664 663 663 662 662 662 662 662 661 660 659 657 656 654 654 654 655 656 657 658 659 660 662
734 732 730 728 726 724 722 720 719 717 715 713 711 709 708 706 704 702 700 698 696 694 693 692 690 688 686 684 683 682 680 678 677 676 675 673 671 669 668 666 665 664 662 661 661 660 659 658 658 657 657 657 657 657 656 655 655 654 652 650 650 651 652 653 654 655 657 658 659
732 730 728 726 724 722 720 718 717 715 713 711 709 707 705 703 701 699 697 695 694 691 690 688 686 684 682 681 679 678 676 675 673 672 670 669 667 665 663 662 660 659 658 657 656 655 654 653 652 652 651 651 652 651 651 651 651 650 649 647 646 647 649 650 652 654 655 656 657
730 729 727 724 722 720 718 716 715 713 711 709 707 705 703 700 698 696 694 692 691 689 687 685 683 681 679 677 676 674 672 671 669 668 666 665 663 661 659 657 655 654 653 652 651 650 649 648 647 646 646 646 646 646 645 646 646 646 645 644 643 644 646 648 649 651 653 654 655
729 727 725 723 721 719 716 714 712 710 708 706 704 702 700 698 696 693 691 689 688 686 684 681 679 677 675 674 672 670 668 666 665 664 662 661 659 657 655 653 650 649 648 647 646 645 644 643 642 641 640 640 640 640 640 640 641 641 641 640 641 642 644 645 647 649 651 652 654
728 726 724 721 719 717 714 712 710 708 706 703 701 699 697 695 693 690 688 686 684 682 680 677 675 674 672 670 668 666 664 662 660 659 658 656 655 653 650 648 645 644 644 643 641 640 639 638 636 635 635 634 634 633 633 634 635 636 636 637 639 641 643 645 646 648 650 651 653
726 724 722 719 717 714 712 710 708 705 703 700 698 696 694 691 689 687 685 683 681 679 676 673 672 670 668 666 664 662 661 659 657 655 653 652 650 648 645 643 641 639 639 638 636 635 634 633 631 630 629 628 628 627 627 628 629 631 633 634 637 639 642 644 646 648 650 651 652
725 723 720 718 715 712 710 708 705 703 700 698 695 693 690 688 686 684 682 680 678 675 672 669 668 666 664 662 660 658 656 654 653 650 649 647 646 644 641 638 636 634 633 633 632 630 629 628 626 625 624 623 622 622 623 624 626 628 630 632 635 637 640 643 645 647 649 651 652
723 721 719 716 713 710 708 705 703 700 698 695 692 690 688 685 683 680 678 677 674 671 668 666 664 662 659 658 656 654 651 650 648 646 644 642 640 639 637 634 631 629 628 628 627 626 624 623 622 621 620 619 619 619 621 623 625 627 629 631 634 636 639 642 644 647 649 650 653
721 719 717 714 711 709 706 703 701 698 695 693 690 687 685 683 680 677 675 673 671 668 665 662 660 657 655 654 652 649 646 644 643 642 639 637 635 634 632 630 627 625 624 623 622 621 620 619 619 618 617 617 617 618 620 622 624 626 628 630 632 635 639 642 644 647 649 652 654
719 717 715 713 710 707 704 701 699 696 694 691 688 684 682 679 677 674 672 669 667 665 662 659 656 653 651 649 647 644 641 639 637 636 634 633 630 629 628 625 623 621 619 618 617 617 617 616 616 615 615 616 616 618 619 622 624 626 628 629 632 635 639 643 645 648 651 653 655
718 716 713 711 708 705 702 699 696 694 691 689 686 683 679 676 674 671 668 666 664 661 658 655 652 649 647 645 643 640 637 634 632 630 629 628 626 624 623 621 619 617 615 614 613 614 614 614 613 613 614 615 616 617 619 621 623 625 628 630 633 636 640 644 647 649 652 654 657